Tracking 19854 objects as of 21-Sep-2019
HD Live streaming from Space Station
objects crossing your sky now

TIROS N DEB

Track TIROS N DEB now!
10-day predictions


NORAD ID: 11062
Int'l Code: 1978-096C
Perigee: 577.4 km
Apogee: 580.0 km
Inclination: 98.9 °
Period: 96.1 minutes
Semi major axis: 6949 km
RCS: 0.056 m2 (small)
Launch date: October 13, 1978
Source: United States (US)
Launch site: AIR FORCE WESTERN TEST RANGE (AFWTR)

Note: This is SATELLITE DEBRIS
aabbcc
Your satellite tracking list
Your tracking list is empty




NASA's NSSDC Master Catalog

Two Line Element Set (TLE):
1 11062U 78096C   19264.20399380  .00001225  00000-0  10871-3 0  9996
2 11062  98.8722 229.3392 0001905  49.8605 310.2780 14.98489845167695
Source of the keplerian elements: AFSPC